Location: Bittkow
(50.3000°N, 19.0000°E)
Time: 05:03:04
(UTC+00:00)

Cosmos 2322 Rocket - Pass Details

Date: 19 September 2020
Orbit: 831 x 852 km, 71.0° (Epoch: 20 October)

Event Time Altitude Azimuth Distance (km) Brightness Sun altitude
Rises 02:37:09 0° 173° (S) 3,386 5.2 -17.6°
Reaches altitude 10° 02:39:51 10° 162° (SSE) 2,460 4.6 -17.2°
Maximum altitude 02:44:37 29° 104° (ESE) 1,518 4.1 -16.5°
Drops below altitude 10° 02:49:25 10° 47° (NE) 2,485 5.8 -15.8°
Sets 02:52:10 0° 36° (NE) 3,428 6.4 -15.4°
